Погода Луговая

Погода Луговая : погода сейчас, прогноз погоды и архив. Всё, что Вы хотите узнать о погоде Луговая!

Хотите узнать прогноз погоды Луговая? Тогда Вам сюда: Погода Луговая

Поиск расширенной информации на нашем сайте:

Другие новости

Новости СМИ2

Главная страница сайта

Новости сайта

03.07.2017

Напоминаем, что на нашем специализированном сайте Метеоцентр.Азия вы можете получить высокодетализированные автоматические прогнозы погоды по пунктам России, СНГ и мира в авиационном формате (включающие направление и скорость ветра, видимость, явления погоды, количество и форму облачности, нижнюю и верхнюю границу облачности).

Рекомендуем: Стихи и поздравления на заказ заказ стихов.

Погода Луговая - сегодня

Время (UTC), дата Ветер
(°,м/с) 
Видим.   Явления Облачность Т
(°С)
Тd
(°С)
f(%) Тe
(°С)
Pmin
(гПа)
dP
(гПа)
Po
(мм)
O2
(г/м3)
Тmin Tmax R s Состояние
почвы
09 21.06.18 тихо ()   20000 м    8/8 1000 м кучево-дожд. 
[Cb cap]
+29.7 +7.4 25 +30  1006.6  -1.8  698  252           
12 21.06.18 тихо ()   20000 м    4/4 1000 м кучево-дожд. 
[Cb cap]
+29.2 +7.7 26 +29  1006  -0.6  698  253           
15 21.06.18 тихо ()   20000 м    3/0 средняя 
[Ac trans]
+26.4 +8.8 33 +27  1007.5  0.7  698  255    +30.8       
18 21.06.18 180 (Ю) 10 км    ясно 
+22.2 +8.6 42 +23  1008.6  698  259    +30.8       
21 21.06.18 180 (Ю) 10 км    ясно 
+21.4 +8.8 44 +22  1007.4  -1.3  697  259           
00 22.06.18 200 (Ю) 20000 м    4/0 верхняя 
[Ci fib]
+17.6 +8 53 +19  1008.7  0.2  697  263           
06 22.06.18 140 (ЮВ) 20000 м    6/6 1000 м 
[Cu hum]
+31.3 +11.2 29 +36  1003.9  -1  697  250  +17.4         
09 22.06.18 160 (Ю) 20000 м    8/8 1000 м 
[Cu hum]
+32.2 +10.9 27 +36  1002.3  -1.3  696  249           
12 22.06.18 320 (СЗ) 20000 м    6/6 1000 м кучево-дожд. 
[Cb cap]
+32.7 +10.9 26 +37  1001.7  -0.4  695  248           
15 22.06.18 250 (З) 20000 м    4/4 1000 м кучево-дожд. 
[Cb cap]
+27 +9.3 33 +29  1003.9  0.7  696  253    +33.1       
18 22.06.18 тихо ()   10 км    3/3 1000 м кучево-дожд. 
[Cb cap]
+23.5 +10.5 44 +27  1005.3  0.4  696  256    +33.1       
21 22.06.18 200 (Ю) 10 км    ясно 
+23.1 +10.6 45 +27  1004.1  -1.2  695  256           
00 23.06.18 200 (Ю) 20000 м    6/6 1000 м кучево-дожд. 
[Cb cap]
+22.2 +11.1 49 +26  1004  -0.3  695  257           
06 23.06.18 290 (З) 20000 м    8/8 1000 м кучево-дожд., верхняя 
[Cb cap|Ci fib]
+30.5 +8.5 25 +31  1002.3  -0.6  695  251  +22         
09 23.06.18 270 (З) 15  20000 м    10/10 1000 м кучево-дожд. 
[Cb cap]
+29 +8 27 +29  1003.6  0.8  696  252           
12 23.06.18 160 (Ю) 20000 м  гроза без осадков  9/9 1000 м кучево-дожд. 
[Cb cap]
+26.1 +7.3 30 +26  1003.4  -0.9  695  254           
21 23.06.18 250 (З) 10 км    10/10 1000 м кучево-дожд. 
[Cb cap]
+19.8 +9.9 53 +24  1004.5  0.8  695  259           
00 24.06.18 180 (Ю) 20000 м    10/10 1000 м кучево-дожд. 
[Cb cap]
+20.9 +10.3 51 +24  1002.3  -1.7  694  258           
09 24.06.18 320 (СЗ) 20000 м    10/4 1000 м кучево-дожд., средняя, верхняя 
[Cb cap|Ac trans|Ci fib]
+27.3 +11.3 37 +32  1002.1  695  252           
12 24.06.18 340 (С) 20000 м  осадки на расстоянии{ливн. осадки}  10/6 1000 м кучево-дожд., средняя 
[Cb cap|Ac trans]
+22.2 +10.6 48 +26  1007.4  3.5  697  258           
21 24.06.18 тихо ()   10 км    5/0 средняя 
[Ac trans]
+16.1 +9.4 64 +18  1008.1  -0.3  697  263           
00 25.06.18 тихо ()   20000 м    8/0 средняя 
[Ac trans]
+17.9 +10.3 61 +21  1007.9  0.3  697  262           
06 25.06.18 290 (З) 20000 м    9/9 1000 м кучево-дожд. 
[Cb cap]
+24.4 +7.3 33 +24  1006.5  -0.4  697  257  +15.9         
09 25.06.18 230 (ЮЗ) 20000 м    9/9 1000 м кучево-дожд. 
[Cb cap]
+23.4 +5.3 31 +23  1007.4  0.7  698  258           
12 25.06.18 290 (З) 10 км  гроза, ливневой дождь  10/10 600 м кучево-дожд. 
[Cb cap]
+19.5 +8.6 49 +20  1010.4  1.8  699  261           
Время (UTC), дата Ветер
(°,м/с) 
Видим.   Явления Облачность Т
(°С)
Тd
(°С)
f(%) Тe
(°С)
Pmin
(гПа)
dP
(гПа)
Po
(мм)
O2
(г/м3)
Тmin Tmax R s Состояние
почвы

Для получения пояснительной информации подведите курсор к названию столбца.

ПОГОДА Луговая - архив

Всё, что Вы хотите узнать о погоде Луговая - удобно и подробно!

Выберите нужную дату (начиная с 1 января 2015* года) и нажмите кнопку "Найти".
Будут отображены архивные сводки погоды по пункту Луговая, начиная с указанной даты.


Отображать данные в формате CSV (для использования в таблицах Excel)


Внимание! Наш архив погоды предназначен исключительно для личного некоммерческого использования в познавательных целях. Если Вам необходимы официальные справки о состоянии погоды (для производственных, юридических, коммерческих и т.п. целей), обращайтесь в органы Росгидромета.

*Примечание: данная дата относится к архиву по метеостанциям СССР (Россия, СНГ, Балтия).
Архив по метеостанциям Зарубежной Европы и Азии (кроме Китая) хранится 10 дней, по другим регионам земного шара (Китай, Африка, Америка, Австралия, Океания) - 1 день.

Луговая - район местоположения метеостанции


Название, широта, долгота, высота метеостанции:
Луговая 42.9°ш. 72.8°д. 683 м над ур. моря [Казахстан]

Дополнительная информация

В oтличие oт бoльшинства пoгoдных сайтoв мы публикуем пoдрoбную метеoинфoрмацию в детальнoм прoфессиoнальнoм фoрмате.

Характеристики температуры и влажнoсти вoздуха измеряются на высoте 2 м в тени вдали oт зданий и деревьев.
Скoрoсть ветра измеряется на высoте 10 м (на урoвне рoста челoвека скoрoсть ветра ниже в 1.5-2 раза). Если метеoстанция нахoдится в гoрoде или в лесу, тo скoрoсть ветра занижена на 2-4 м/с пo сравнению с oткрытым местoм. Скoрoсть ветра над акватoриями крупных рек и oзёр, а также на вершинах хoлмoв на 2-5 м/с выше, чем в oбычных услoвиях.
Атмoсфернoе давление в разных тoчках местнoсти мoжет значительнo oтличаться oт давления на метеoстанции, в зависимoсти oт услoвий рельефа (при пoдъёме на 10 м давление пoнижается примернo на 1 мм рт.ст.).